OE3MHU-13 Weather Reports


time (UTC)temp
C
wind
direction
speed
KPH
gust
KPH
rain 1hr
cm
rain 24hr
cm
rain mn
cm
humidity
%
barometer
mb
20260503035054 8 78 0.0 1.6 0.00 0.00 0.00 81 1020.3
20260503034548 8 97 0.0 1.6 0.00 0.00 0.00 81 1020.3
20260503034044 8 97 0.0 1.6 0.00 0.00 0.00 81 1020.3
20260503033545 8 86 0.0 1.6 0.00 0.00 0.00 81 1020.3
20260503033045 8 82 0.0 1.6 0.00 0.00 0.00 81 1020.3
20260503032543 8 82 0.0 1.6 0.00 0.00 0.00 80 1020.3
20260503032039 8 82 0.0 1.6 0.00 0.00 0.00 80 1020.3
20260503031538 8 82 0.0 1.6 0.00 0.00 0.00 79 1020.2
20260503031038 8 82 0.0 1.6 0.00 0.00 0.00 79 1020.2
20260503030537 8 82 0.0 3.2 0.00 0.00 0.00 79 1020.2
20260503030035 8 82 0.0 3.2 0.00 0.00 0.00 79 1020.2
20260503025533 8 67 0.0 1.6 0.00 0.00 0.00 79 1020.2
20260503025031 8 67 0.0 0.0 0.00 0.00 0.00 78 1020.1
20260503024529 8 67 0.0 0.0 0.00 0.00 0.00 77 1020.2
20260503024026 8 67 0.0 1.6 0.00 0.00 0.00 78 1020.2
20260503023525 8 67 0.0 6.4 0.00 0.00 0.00 77 1020.2
20260503023023 8 67 1.6 6.4 0.00 0.00 0.00 77 1020.1
20260503022520 9 65 1.6 8.0 0.00 0.00 0.00 77 1020.1
20260503022021 9 70 3.2 9.7 0.00 0.00 0.00 77 1020.3
20260503021521 9 79 4.8 12.9 0.00 0.00 0.00 76 1020.2
20260503021019 9 77 8.0 16.1 0.00 0.00 0.00 75 1020.1
20260503020519 9 87 6.4 16.1 0.00 0.00 0.00 76 1020.1
20260503020011 8 79 0.0 9.7 0.00 0.00 0.00 79 1019.9
20260503015504 8 77 0.0 3.2 0.00 0.00 0.00 77 1019.9
20260503014958 8 113 0.0 3.2 0.00 0.00 0.00 77 1019.8
20260503014452 8 108 0.0 1.6 0.00 0.00 0.00 77 1019.7
20260503013946 8 146 0.0 1.6 0.00 0.00 0.00 76 1019.7
20260503013447 8 162 0.0 1.6 0.00 0.00 0.00 76 1019.8
20260503012946 8 239 0.0 1.6 0.00 0.00 0.00 76 1019.7
20260503012445 8 207 0.0 1.6 0.00 0.00 0.00 76 1019.7
20260503011944 8 221 0.0 3.2 0.00 0.00 0.00 76 1019.7
20260503011444 8 228 0.0 3.2 0.00 0.00 0.00 76 1019.8
20260503010943 9 82 0.0 1.6 0.00 0.00 0.00 76 1019.8
20260503010440 9 136 0.0 3.2 0.00 0.00 0.00 76 1019.9
20260503005939 9 198 0.0 3.2 0.00 0.00 0.00 75 1019.9
20260503005438 9 152 0.0 3.2 0.00 0.00 0.00 75 1019.9
20260503004937 9 86 0.0 1.6 0.00 0.00 0.00 75 1019.9
20260503004436 9 82 0.0 1.6 0.00 0.00 0.00 75 1019.8
20260503003937 9 101 0.0 1.6 0.00 0.00 0.00 75 1019.9
20260503003436 9 125 0.0 1.6 0.00 0.00 0.00 74 1019.9
20260503002934 9 205 0.0 1.6 0.00 0.00 0.00 74 1019.9
20260503002435 9 171 0.0 1.6 0.00 0.00 0.00 74 1020.1
20260503001935 9 76 0.0 0.0 0.00 0.00 0.00 74 1020.1
20260503001436 9 101 0.0 0.0 0.00 0.00 0.00 73 1020.1
20260503000931 9 115 0.0 0.0 0.00 0.00 0.00 73 1020.2
20260503000423 9 174 0.0 1.6 0.00 0.00 0.00 73 1020.2
20260502235918 10 176 0.0 1.6 0.00 0.00 0.00 73 1020.2
20260502235411 10 182 0.0 1.6 0.00 0.00 0.00 72 1020.3
20260502234904 10 229 0.0 1.6 0.00 0.00 0.00 72 1020.3
20260502234357 10 111 0.0 1.6 0.00 0.00 0.00 72 1020.4
20260502233851 10 120 0.0 1.6 0.00 0.00 0.00 72 1020.4
20260502233345 10 114 0.0 1.6 0.00 0.00 0.00 72 1020.5
20260502232838 10 127 0.0 1.6 0.00 0.00 0.00 71 1020.5
20260502232333 10 162 0.0 1.6 0.00 0.00 0.00 71 1020.5
20260502231827 10 120 0.0 1.6 0.00 0.00 0.00 71 1020.5
20260502231321 10 162 0.0 1.6 0.00 0.00 0.00 71 1020.7
20260502230815 10 159 0.0 1.6 0.00 0.00 0.00 71 1020.6
20260502230309 10 199 0.0 0.0 0.00 0.00 0.00 71 1020.6
20260502225803 10 199 0.0 0.0 0.00 0.00 0.00 71 1020.6
20260502225257 10 199 0.0 0.0 0.00 0.00 0.00 71 1020.5
20260502224751 10 199 0.0 0.0 0.00 0.00 0.00 71 1020.5
20260502224245 10 199 0.0 0.0 0.00 0.00 0.00 70 1020.6
20260502223739 11 199 0.0 0.0 0.00 0.00 0.00 70 1020.6
20260502223233 11 199 0.0 0.0 0.00 0.00 0.00 70 1020.6
20260502222727 11 199 0.0 0.0 0.00 0.00 0.00 69 1020.6
20260502222222 11 199 0.0 0.0 0.00 0.00 0.00 69 1020.7
20260502221715 11 199 0.0 0.0 0.00 0.00 0.00 69 1020.7
20260502221209 11 199 0.0 0.0 0.00 0.00 0.00 68 1020.8
20260502220703 11 199 0.0 0.0 0.00 0.00 0.00 67 1020.8
20260502220158 11 199 0.0 0.0 0.00 0.00 0.00 67 1020.7
20260502215652 11 199 0.0 0.0 0.00 0.00 0.00 66 1020.8
20260502215146 11 199 0.0 0.0 0.00 0.00 0.00 66 1020.7
20260502214640 11 199 0.0 0.0 0.00 0.00 0.00 66 1020.7
20260502214134 11 199 0.0 0.0 0.00 0.00 0.00 65 1020.7
20260502213628 12 199 0.0 0.0 0.00 0.00 0.00 65 1020.8
20260502213123 12 199 0.0 0.0 0.00 0.00 0.00 65 1020.8
20260502212616 12 215 0.0 3.2 0.00 0.00 0.00 64 1020.8
20260502212110 12 160 0.0 3.2 0.00 0.00 0.00 64 1020.8
20260502211604 12 205 0.0 0.0 0.00 0.00 0.00 64 1020.9
20260502211059 12 219 0.0 1.6 0.00 0.00 0.00 64 1020.9
20260502210553 12 219 0.0 1.6 0.00 0.00 0.00 63 1020.9
20260502210059 12 219 0.0 1.6 0.00 0.00 0.00 63 1020.9
20260502205540 12 219 0.0 0.0 0.00 0.00 0.00 62 1020.9
20260502205034 13 220 0.0 1.6 0.00 0.00 0.00 62 1021.0
20260502204528 13 219 0.0 1.6 0.00 0.00 0.00 61 1021.0
20260502204022 13 231 0.0 3.2 0.00 0.00 0.00 61 1021.0
20260502203516 13 214 0.0 3.2 0.00 0.00 0.00 60 1021.1
20260502203011 13 214 0.0 4.8 0.00 0.00 0.00 60 1021.1
20260502202712 13 214 0.0 1.6 0.00 0.00 0.00 60 1021.2
20260502202654 13 217 0.0 4.8 0.00 0.00 0.00 60 1021.1
20260502201452 13 218 0.0 1.6 0.00 0.00 0.00 60 1021.1
20260502200946 13 221 0.0 3.2 0.00 0.00 0.00 60 1021.2
20260502200440 13 217 0.0 4.8 0.00 0.00 0.00 60 1021.1
20260502195935 14 204 0.0 4.8 0.00 0.00 0.00 59 1021.3
20260502195429 14 210 0.0 4.8 0.00 0.00 0.00 59 1021.3
20260502194922 14 216 0.0 4.8 0.00 0.00 0.00 59 1021.3
20260502194417 14 239 0.0 4.8 0.00 0.00 0.00 59 1021.3
20260502193910 14 213 0.0 4.8 0.00 0.00 0.00 59 1021.3
20260502193405 14 206 0.0 4.8 0.00 0.00 0.00 59 1021.3
20260502192901 15 168 0.0 4.8 0.00 0.00 0.00 59 1021.3
20260502192352 15 179 0.0 3.2 0.00 0.00 0.00 59 1021.3
20260502191846 15 139 1.6 6.4 0.00 0.00 0.00 58 1021.3
20260502191340 15 160 1.6 6.4 0.00 0.00 0.00 58 1021.3
20260502190834 15 209 1.6 6.4 0.00 0.00 0.00 57 1021.2
20260502190328 15 208 1.6 6.4 0.00 0.00 0.00 57 1021.3
20260502185822 15 63 1.6 6.4 0.00 0.00 0.00 56 1021.2
20260502185316 16 225 1.6 6.4 0.00 0.00 0.00 56 1021.3
20260502184810 16 71 0.0 4.8 0.00 0.00 0.00 55 1021.2
20260502184305 16 221 0.0 3.2 0.00 0.00 0.00 55 1021.1
20260502183759 16 205 1.6 4.8 0.00 0.00 0.00 54 1021.1
20260502183252 17 252 0.0 4.8 0.00 0.00 0.00 53 1021.1
20260502182747 17 214 0.0 4.8 0.00 0.00 0.00 52 1021.1
20260502182245 17 205 0.0 4.8 0.00 0.00 0.00 51 1021.0
20260502181745 18 200 0.0 4.8 0.00 0.00 0.00 50 1020.9
20260502181245 18 225 0.0 3.2 0.00 0.00 0.00 48 1020.8
20260502180743 19 153 0.0 1.6 0.00 0.00 0.00 46 1020.8
20260502180241 20 168 0.0 1.6 0.00 0.00 0.00 44 1020.9
20260502170227 26 77 0.0 0.0 0.00 0.00 0.00 29 1020.9
20260502164216 26 173 0.0 0.0 0.00 0.00 0.00 29 1021.0
20260502163710 26 194 0.0 0.0 0.00 0.00 0.00 28 1021.1
20260502163205 27 194 0.0 0.0 0.00 0.00 0.00 28 1021.1
20260502162659 27 199 0.0 0.0 0.00 0.00 0.00 27 1021.2
20260502162153 27 195 0.0 0.0 0.00 0.00 0.00 27 1021.1
20260502162143 27 195 0.0 0.0 0.00 0.00 0.00 26 1021.3
20260502161141 27 186 0.0 1.6 0.00 0.00 0.00 28 1021.3
20260502160635 27 187 0.0 1.6 0.00 0.00 0.00 29 1021.5
20260502160129 26 105 0.0 1.6 0.00 0.00 0.00 29 1021.5
20260502152041 27 126 0.0 1.6 0.00 0.00 0.00 27 1021.8
20260502151535 27 238 0.0 1.6 0.00 0.00 0.00 28 1021.9
20260502151031 27 237 0.0 1.6 0.00 0.00 0.00 26 1022.0
20260502150523 27 221 0.0 4.8 0.00 0.00 0.00 27 1022.0
20260502130418 27 214 0.0 4.8 0.00 0.00 0.00 29 1023.2
20260502123401 27 182 0.0 1.6 0.00 0.00 0.00 30 1023.8
20260502122854 27 135 0.0 1.6 0.00 0.00 0.00 30 1023.8
20260502122347 27 208 0.0 3.2 0.00 0.00 0.00 29 1023.9
20260502121849 26 108 0.0 3.2 0.00 0.00 0.00 30 1024.0
20260502121347 27 248 0.0 3.2 0.00 0.00 0.00 29 1024.1
20260502120845 26 117 0.0 3.2 0.00 0.00 0.00 30 1024.1
20260502120348 26 103 0.0 3.2 0.00 0.00 0.00 32 1024.2
20260502115845 26 77 1.6 4.8 0.00 0.00 0.00 31 1024.3
20260502115345 26 258 0.0 4.8 0.00 0.00 0.00 29 1024.3
20260502114845 27 75 0.0 1.6 0.00 0.00 0.00 30 1024.3
20260502114343 26 159 0.0 3.2 0.00 0.00 0.00 30 1024.4
20260502113841 27 155 0.0 3.2 0.00 0.00 0.00 31 1024.5
20260502113340 26 165 0.0 3.2 0.00 0.00 0.00 32 1024.5
20260502112845 26 117 0.0 3.2 0.00 0.00 0.00 32 1024.6
20260502112339 26 103 0.0 3.2 0.00 0.00 0.00 31 1024.6
20260502111839 26 114 0.0 3.2 0.00 0.00 0.00 32 1024.5
20260502111339 26 121 0.0 3.2 0.00 0.00 0.00 33 1024.6
20260502110839 26 208 0.0 3.2 0.00 0.00 0.00 33 1024.6
20260502110339 26 202 0.0 1.6 0.00 0.00 0.00 33 1024.8
20260502105842 25 151 0.0 6.4 0.00 0.00 0.00 33 1024.8
20260502105335 25 115 0.0 6.4 0.00 0.00 0.00 34 1024.9
20260502104838 26 179 0.0 1.6 0.00 0.00 0.00 33 1024.9
20260502104334 25 112 0.0 4.8 0.00 0.00 0.00 35 1025.0
20260502103833 25 73 0.0 4.8 0.00 0.00 0.00 35 1025.0
20260502103332 25 84 0.0 1.6 0.00 0.00 0.00 35 1025.1
20260502102829 23 200 0.0 4.8 0.00 0.00 0.00 37 1025.2
20260502102329 23 118 0.0 4.8 0.00 0.00 0.00 36 1025.3
20260502101825 24 75 0.0 3.2 0.00 0.00 0.00 35 1025.4
20260502101325 25 83 0.0 3.2 0.00 0.00 0.00 34 1025.4
20260502100821 25 242 0.0 6.4 0.00 0.00 0.00 35 1025.8
20260502100321 25 273 0.0 6.4 0.00 0.00 0.00 33 1025.8
20260502090319 22 82 0.0 3.2 0.00 0.00 0.00 44 1026.3
20260502071300 17 136 0.0 1.6 0.00 0.00 0.00 57 1026.9
20260502070801 16 135 0.0 1.6 0.00 0.00 0.00 58 1026.8
20260502070301 16 87 0.0 1.6 0.00 0.00 0.00 59 1026.9
20260502065801 16 109 0.0 1.6 0.00 0.00 0.00 60 1026.9
20260502065301 16 134 0.0 1.6 0.00 0.00 0.00 59 1026.9
20260502064802 16 93 0.0 1.6 0.00 0.00 0.00 59 1026.9
20260502064257 15 86 0.0 1.6 0.00 0.00 0.00 61 1026.9
20260502063757 15 76 0.0 1.6 0.00 0.00 0.00 61 1026.9
20260502063257 15 59 0.0 1.6 0.00 0.00 0.00 62 1026.9
20260502062756 15 198 0.0 1.6 0.00 0.00 0.00 62 1027.0
20260502062256 14 178 0.0 1.6 0.00 0.00 0.00 63 1027.0
20260502061758 14 201 0.0 0.0 0.00 0.00 0.00 65 1027.0
20260502061257 13 205 0.0 0.0 0.00 0.00 0.00 66 1027.0
20260502060756 13 248 0.0 0.0 0.00 0.00 0.00 66 1027.0
20260502060257 13 211 0.0 1.6 0.00 0.00 0.00 68 1026.9
20260502055753 12 236 0.0 1.6 0.00 0.00 0.00 69 1026.9
20260502055253 12 218 0.0 1.6 0.00 0.00 0.00 71 1026.9
20260502054752 11 218 0.0 1.6 0.00 0.00 0.00 72 1026.9
20260502054253 11 231 0.0 1.6 0.00 0.00 0.00 72 1026.9
20260502053752 11 236 0.0 3.2 0.00 0.00 0.00 73 1026.9
20260502053252 10 236 0.0 4.8 0.00 0.00 0.00 74 1026.9
20260502052753 10 261 0.0 6.4 0.00 0.00 0.00 75 1026.9
20260502052253 10 240 0.0 6.4 0.00 0.00 0.00 75 1026.9
20260502051754 10 229 1.6 6.4 0.00 0.00 0.00 76 1026.9
20260502051253 9 247 1.6 8.0 0.00 0.00 0.00 77 1026.9
20260502050753 8 254 0.0 8.0 0.00 0.00 0.00 78 1026.8
20260502050252 8 205 0.0 3.2 0.00 0.00 0.00 78 1026.9
20260502045752 8 231 0.0 1.6 0.00 0.00 0.00 80 1026.8
20260502045252 8 224 0.0 1.6 0.00 0.00 0.00 80 1026.9
20260502044753 8 211 0.0 1.6 0.00 0.00 0.00 80 1026.8
20260502044253 8 40 0.0 1.6 0.00 0.00 0.00 80 1026.7
20260502043753 7 70 0.0 1.6 0.00 0.00 0.00 80 1026.7
20260502043253 7 84 0.0 1.6 0.00 0.00 0.00 80 1026.7
20260502042753 7 79 0.0 1.6 0.00 0.00 0.00 81 1026.6
20260502042253 7 207 0.0 0.0 0.00 0.00 0.00 80 1026.6
20260502041753 7 224 0.0 0.0 0.00 0.00 0.00 80 1026.7
20260502041253 7 224 0.0 1.6 0.00 0.00 0.00 79 1026.7
20260502040752 7 224 0.0 1.6 0.00 0.00 0.00 79 1026.6
20260502040253 8 224 0.0 4.8 0.00 0.00 0.00 78 1026.6
20260502035750 8 224 1.6 9.7 0.00 0.00 0.00 78 1026.6